date,time,DOY,Ta_1_1_1,Pa_1_1_1,RH_1_1_1,LWin_1_1_1,LWout_1_1_1,SWin_1_1_1,SWout_1_1_1,PPFD_1_1_1,MWS_1_1_1,WD_1_1_1,SWC_1_1_1,Ts_1_1_1
[yyyy-mm-dd],[HH:MM],[ddd.ddd],[K],[Pa],[%],[W+1m-2],[W+1m-2],[W+1m-2],[W+1m-2],[µmol+1m-2s-1],[m+1s-1],[deg],[m+3m-3],[K]
2018-06-10,00:30,161.020,291.78233333333350,95019.333333333328,70.167333333333346,411.66033333333331,388.13800000000003,10.988999999999999,55.892666666666656,113.23766666666666,3.8833333333333333,86.422333333333341,0.28999999999999992,286.46900000000011
2018-06-10,01:00,161.041,291.58666666666676,95036.766666666663,71.349000000000004,410.33633333333330,386.90133333333330,7.7099999999999982,36.708666666666659,73.808666666666667,3.4233333333333338,84.665999999999983,0.28999999999999992,286.45399999999995
2018-06-10,01:30,161.062,291.33900000000006,95030.800000000003,71.794999999999987,408.67066666666665,385.09700000000004,5.4496666666666673,21.627333333333340,40.457333333333324,3.8533333333333331,89.478000000000009,0.28999999999999992,286.43100000000010
2018-06-10,02:00,161.083,290.99899999999991,95014.000000000000,72.471666666666664,406.35066666666665,381.82333333333338,1.6839999999999999,3.8356666666666666,8.7486666666666668,3.6633333333333336,82.511333333333326,0.28999999999999992,286.40133333333335
2018-06-10,02:30,161.104,290.64633333333336,95014.699999999997,73.315666666666672,404.22333333333341,375.05633333333338,0.59666666666666657,-1.4683333333333335,0.51100000000000001,3.5200000000000009,73.054999999999993,0.28999999999999992,286.37633333333332
2018-06-10,03:00,161.124,290.31633333333332,95033.766666666663,74.482333333333330,401.93366666666662,366.64799999999991,0.52500000000000002,-2.2700000000000005,6.00000000000000012E-003,3.3200000000000007,83.756000000000014,0.28999999999999992,286.33566666666673
2018-06-10,03:30,161.145,289.89566666666661,95047.133333333331,75.539666666666662,399.36300000000006,362.70600000000007,0.63666666666666660,-2.2410000000000001,-3.00000000000000006E-003,4.0066666666666659,93.266666666666666,0.28999999999999992,286.30066666666676
2018-06-10,04:00,161.166,289.47466666666668,95031.500000000000,75.698000000000008,395.70033333333333,339.10966666666661,0.79266666666666652,-3.5446666666666671,-9.00000000000000105E-003,3.7699999999999991,98.154999999999987,0.28599999999999998,286.25900000000001
2018-06-10,04:30,161.187,288.89833333333331,95008.666666666672,76.826999999999998,391.76800000000003,331.96699999999998,0.99966666666666626,-3.9996666666666658,-1.16666666666666689E-002,3.1266666666666665,88.777666666666690,0.28400000000000009,286.21200000000005
2018-06-10,05:00,161.208,288.53666666666686,95016.899999999994,77.498333333333321,389.12533333333340,329.71700000000004,1.2173333333333336,-3.6793333333333331,2.00000000000000004E-003,3.4299999999999993,101.61133333333333,0.28999999999999992,286.16033333333331
2018-06-10,05:30,161.229,288.13366666666673,94992.899999999994,77.551666666666677,386.31533333333329,328.50800000000004,1.2180000000000000,-4.0633333333333335,-1.00000000000000002E-003,1.8966666666666669,81.566666666666663,0.28999999999999992,286.10033333333337
2018-06-10,06:00,161.249,287.79433333333350,94953.766666666663,73.625999999999976,384.19533333333334,327.41500000000002,1.2710000000000004,-3.6873333333333345,-7.00000000000000015E-003,2.8033333333333328,85.633333333333340,0.28999999999999992,286.03666666666669
2018-06-10,06:30,161.270,287.96233333333328,94945.566666666666,67.295000000000016,385.37566666666663,327.17633333333339,1.2633333333333334,-3.6246666666666671,-7.00000000000000101E-003,3.2200000000000002,86.988999999999990,0.28999999999999992,285.96299999999991
2018-06-10,07:00,161.291,287.77333333333343,94916.966666666660,65.819999999999993,384.94433333333342,326.42766666666665,1.0996666666666670,-3.7530000000000006,4.00000000000000008E-003,3.5266666666666660,89.176999999999978,0.28999999999999992,285.88700000000000
2018-06-10,07:30,161.312,287.42133333333339,94883.466666666660,65.999666666666684,383.86433333333332,324.89400000000001,0.96799999999999975,-3.8153333333333341,0.0000000000000000,3.5500000000000003,86.333666666666673,0.28999999999999992,285.81066666666669
2018-06-10,08:00,161.333,286.90099999999995,94876.533333333340,67.386666666666684,381.22466666666668,322.45999999999998,0.98099999999999998,-3.7853333333333334,3.00000000000000006E-003,3.6233333333333340,84.320999999999984,0.28566666666666668,285.73899999999998
2018-06-10,08:30,161.354,286.45866666666666,94892.800000000003,69.145333333333340,378.77799999999996,320.97366666666665,0.98066666666666669,-3.7906666666666671,-7.00000000000000015E-003,3.0933333333333324,83.855666666666664,0.28033333333333343,285.66766666666666
2018-06-10,09:00,161.374,285.99766666666670,94894.966666666660,71.623000000000005,376.13033333333334,319.73400000000004,1.0433333333333334,-3.6890000000000001,9.00000000000000105E-003,2.8833333333333337,86.544333333333327,0.28000000000000014,285.59533333333337
2018-06-10,09:30,161.395,285.56300000000010,94892.699999999997,73.814000000000007,373.97833333333330,318.39699999999993,1.0393333333333334,-3.5543333333333336,3.49999999999999964E-002,3.0100000000000007,88.088333333333338,0.28000000000000014,285.52666666666670
2018-06-10,10:00,161.416,285.38099999999997,94886.899999999994,74.462999999999994,373.19033333333340,317.69766666666669,1.4230000000000005,-1.9699999999999991,1.7296666666666669,3.4733333333333340,90.478666666666669,0.28000000000000014,285.45199999999994
2018-06-10,10:30,161.437,285.56766666666670,94890.466666666660,72.672333333333327,374.86833333333340,318.65999999999997,5.2883333333333349,15.657666666666668,27.789333333333332,4.4866666666666672,92.378666666666675,0.28000000000000014,285.38033333333340
2018-06-10,11:00,161.458,285.84800000000001,94909.399999999994,72.068666666666658,376.93133333333333,319.57566666666662,15.984000000000000,71.298333333333332,115.46233333333332,3.8333333333333344,90.267000000000010,0.28066666666666679,285.31166666666678
2018-06-10,11:30,161.479,286.12333333333322,94947.600000000006,71.010333333333335,379.47066666666672,322.90266666666662,27.203666666666674,139.40800000000002,232.51999999999998,3.8899999999999997,87.244666666666674,0.28000000000000014,285.25366666666662
2018-06-10,12:00,161.499,286.39466666666675,94949.433333333334,71.305333333333323,382.17133333333345,325.57133333333337,34.527333333333338,196.94900000000001,348.27133333333336,4.5066666666666668,90.099666666666664,0.28000000000000014,285.19833333333338
2018-06-10,12:30,161.520,287.10533333333336,94954.399999999994,70.168333333333337,387.33366666666666,329.44866666666678,49.464333333333329,287.74700000000007,522.65200000000016,4.7966666666666669,89.756333333333345,0.28133333333333344,285.15666666666658
2018-06-10,13:00,161.541,288.21400000000006,94959.366666666669,65.719333333333324,394.13866666666678,334.83333333333326,63.724000000000011,373.87600000000009,699.63800000000015,4.2266666666666675,86.066333333333333,0.28999999999999992,285.13133333333332
2018-06-10,13:30,161.562,288.97766666666672,94975.266666666663,63.085333333333324,400.02233333333328,339.50100000000003,78.710333333333338,464.74966666666660,884.39399999999989,4.8666666666666680,96.155333333333331,0.28899999999999992,285.12166666666667
2018-06-10,14:00,161.583,289.94533333333334,94987.233333333337,62.132333333333335,406.84466666666663,345.80400000000003,92.952000000000027,552.38766666666675,1066.4860000000001,5.2633333333333328,93.155666666666676,0.28000000000000014,285.13433333333336
2018-06-10,14:30,161.604,290.86866666666680,94972.866666666669,57.645333333333340,413.32799999999992,351.16800000000006,107.72900000000001,643.83166666666648,1257.5826666666665,6.3266666666666662,94.312000000000026,0.28433333333333344,285.17399999999992
2018-06-10,15:00,161.624,291.60700000000008,94973.133333333331,53.940666666666665,418.09800000000007,354.33799999999997,118.18833333333333,713.75199999999984,1408.4000000000003,6.0433333333333348,83.456000000000003,0.28599999999999998,285.26400000000007
2018-06-10,15:30,161.645,291.80233333333331,94989.866666666669,50.665999999999990,419.85100000000006,355.42966666666672,131.31966666666668,805.38666666666677,1599.2419999999997,7.7166666666666668,83.455333333333328,0.28000000000000014,285.34233333333333
2018-06-10,16:00,161.666,292.23433333333321,94996.566666666666,48.561666666666675,423.79899999999992,357.72466666666662,140.02900000000000,864.76933333333341,1730.2589999999996,7.1199999999999983,94.288666666666657,0.28000000000000014,285.42599999999999
2018-06-10,16:30,161.687,292.92899999999997,95000.899999999994,45.971000000000004,429.11333333333346,360.42366666666669,148.94733333333332,915.28199999999981,1842.8529999999996,6.9033333333333342,99.011666666666670,0.28000000000000014,285.52433333333340
2018-06-10,17:00,161.708,293.23800000000006,94999.933333333334,43.681666666666679,431.11500000000001,362.50600000000003,153.94300000000001,950.68700000000013,1920.9863333333333,7.0733333333333341,92.132999999999996,0.28000000000000014,285.65633333333329
2018-06-10,17:30,161.729,293.66133333333335,94994.500000000000,42.423333333333339,434.28566666666666,364.59366666666665,156.41566666666665,962.32600000000025,1954.0063333333337,6.3799999999999981,86.488333333333316,0.28000000000000014,285.78133333333335
2018-06-10,18:00,161.749,294.08966666666674,94975.500000000000,41.793666666666667,437.82166666666666,368.02000000000004,159.13100000000003,975.47533333333320,1992.3043333333333,6.4566666666666661,93.244333333333316,0.28000000000000014,285.90533333333332
2018-06-10,18:30,161.770,294.59100000000012,94969.666666666672,40.524333333333331,440.99566666666658,369.20366666666666,159.10499999999999,967.82000000000005,1987.2850000000001,5.5999999999999996,94.855666666666664,0.28000000000000014,286.03033333333337
2018-06-10,19:00,161.791,294.61000000000018,94942.433333333334,37.951666666666675,440.46866666666671,367.89833333333331,161.12633333333332,960.32966666666675,1969.3770000000000,6.2700000000000005,84.299999999999997,0.28000000000000014,286.21033333333338
2018-06-10,19:30,161.812,294.95200000000006,94897.000000000000,37.600666666666676,441.74733333333336,368.73833333333346,153.75500000000002,897.71533333333343,1847.4226666666666,6.5033333333333330,91.465999999999994,0.28000000000000014,286.42033333333330
2018-06-10,20:00,161.833,295.16333333333330,94871.300000000003,36.750999999999998,443.06966666666665,368.92199999999991,152.63733333333332,868.91166666666652,1796.1820000000002,5.9899999999999984,99.178000000000011,0.28000000000000014,286.57600000000008
2018-06-10,20:30,161.854,295.29666666666657,94849.333333333328,35.415333333333336,443.78233333333338,369.32466666666664,150.01733333333334,830.40566666666666,1718.4936666666661,5.9933333333333332,92.889000000000024,0.28000000000000014,286.69500000000005
2018-06-10,21:00,161.874,295.60766666666677,94846.566666666666,34.738666666666667,444.76333333333321,369.75266666666670,141.25100000000006,767.85466666666650,1594.2180000000001,5.5033333333333339,104.04500000000002,0.28000000000000014,286.78566666666671
2018-06-10,21:30,161.895,295.68099999999998,94828.800000000003,33.902999999999999,444.07233333333335,368.91833333333329,132.25833333333330,697.61300000000017,1451.5233333333333,5.0766666666666671,85.556333333333356,0.28000000000000014,286.84933333333339
2018-06-10,22:00,161.916,295.61966666666666,94825.233333333337,33.158000000000008,441.87000000000006,366.78899999999999,121.26933333333332,621.03966666666690,1293.8100000000004,5.3666666666666654,79.578000000000003,0.28000000000000014,286.88733333333329
2018-06-10,22:30,161.937,295.52233333333339,94836.033333333340,33.486000000000004,440.11199999999991,365.04899999999998,108.26533333333333,538.06466666666665,1122.8209999999999,5.5466666666666677,94.210999999999999,0.28000000000000014,286.90933333333328
2018-06-10,23:00,161.958,295.39666666666659,94828.433333333334,33.960333333333338,437.79000000000002,362.97833333333330,93.995333333333321,450.21333333333331,940.06933333333325,5.6133333333333342,92.845000000000013,0.28000000000000014,286.91266666666667
2018-06-10,23:30,161.979,295.25000000000011,94822.500000000000,34.734666666666662,434.89633333333330,359.79166666666669,80.204999999999998,360.66466666666668,751.75633333333326,5.1033333333333335,81.177666666666667,0.28000000000000014,286.90533333333326
2018-06-11,00:00,162.000,294.95433333333324,94810.466666666660,35.576999999999998,431.58999999999997,356.06900000000013,65.393666666666661,271.24866666666668,563.09900000000005,5.1500000000000012,82.921666666666653,0.28000000000000014,286.88633333333343
